Address 0x38acdda3ff0d9d8256092ebbd5455aa6a8d7e568 3

 
Txn Hash Method
Block
From
To
Value [Txn Fee]
0xb561c579cc7ccdd43cc825446999fd534a25273673a1496369538c45f545da72Multicall202785072022-08-15 3:03:441 day 22 hrs ago0x38acdda3ff0d9d8256092ebbd5455aa6a8d7e568OUT Uniswap V3: Router 20 ETH0.‍000117033672 ETH
0x3d02a0ebe86ddedad3cbca823ac8f4cb0e5d282d20b08ed094052ae46f102be8Multicall202784742022-08-15 3:03:441 day 22 hrs ago0x38acdda3ff0d9d8256092ebbd5455aa6a8d7e568OUT Uniswap V3: Router 20 ETH0.‍000166347472 ETH
0x45e5681c9a26424273a0ee5b84b7d37e2979831efc72aa8006cd8458fabe670eApprove202784362022-08-15 3:02:581 day 22 hrs ago0x38acdda3ff0d9d8256092ebbd5455aa6a8d7e568OUT 0xda10009cbd5d07dd0cecc66161fc93d7c9000da10 ETH0.‍000080414089 ETH
0x5f77ed58ec1fb1efd7afd1494846e36e0449bbb6fafb3adbfd34d0f7497d7628Stake200475502022-08-12 1:20:215 days 4 mins ago0x38acdda3ff0d9d8256092ebbd5455aa6a8d7e568OUT 0xc2054a8c33bfce28de8af4af548c48915c455c130 ETH0.‍000223967787 ETH
0x2261eec463fc8826a66334f8d3c2cacca9fc0c1cb9677e31a36bcb866d322fe6Get Reward200475052022-08-12 1:19:015 days 5 mins ago0x38acdda3ff0d9d8256092ebbd5455aa6a8d7e568OUT 0xc2054a8c33bfce28de8af4af548c48915c455c130 ETH0.‍000204344968 ETH
0x87bc5a39b18ce06e1344804b4c2e99a8203675533c7c419c98bff52b5c41c5a5Handle Rewards200473502022-08-12 1:14:405 days 9 mins ago0x38acdda3ff0d9d8256092ebbd5455aa6a8d7e568OUT 0xa906f338cb21815cbc4bc87ace9e68c87ef8d8f10 ETH0.‍00021827912 ETH
0xe45d0126782c3f3472e916f5e714efbfafc3f3c0b56665481eb654144cf7751fStake Gmx200472702022-08-12 1:13:155 days 11 mins ago0x38acdda3ff0d9d8256092ebbd5455aa6a8d7e568OUT 0xa906f338cb21815cbc4bc87ace9e68c87ef8d8f10 ETH0.‍000225530164 ETH
0xd5fc20443f9d5b104a94665082a5f0899239505b51eae30518992ddfa0103723Multicall200467492022-08-12 0:59:175 days 25 mins ago0x38acdda3ff0d9d8256092ebbd5455aa6a8d7e568OUT Uniswap V3: Router 20 ETH0.‍000195372495 ETH
0x942aab92846c97756dec362468f9801fc01bf642e4ed5290afbc6243f0778042Approve200467152022-08-12 0:58:405 days 25 mins ago0x38acdda3ff0d9d8256092ebbd5455aa6a8d7e568OUT 0xff970a61a04b1ca14834a43f5de4533ebddb5cc80 ETH0.‍000128220625 ETH
0xec5c45fdfff02f6aa2091e625d9f683aa3be58a02be066cc5a9e17c7d50e1317Approve200465132022-08-12 0:52:505 days 31 mins ago0x38acdda3ff0d9d8256092ebbd5455aa6a8d7e568OUT 0xff970a61a04b1ca14834a43f5de4533ebddb5cc80 ETH0.‍000139453834 ETH
0x8409b085f5e9409966eeb9ca6ff7178636102b9b08ea251b986d3f64db190e13Swap And Send195663902022-08-06 20:02:2210 days 5 hrs ago0x38acdda3ff0d9d8256092ebbd5455aa6a8d7e568OUT 0xe22d2bedb3eca35e6397e0c6d62857094aa26f520 ETH0.‍000063708015 ETH
0xa8e86e2bf64df2931102d16a227e77e7f0cf2c5a4b53d6d454f3a7b87e28d0b1Approve195663442022-08-06 20:02:0910 days 5 hrs ago0x38acdda3ff0d9d8256092ebbd5455aa6a8d7e568OUT 0xff970a61a04b1ca14834a43f5de4533ebddb5cc80 ETH0.‍000054111573 ETH
0xb4f33601af7e61c2c827a4e50b4b75dd9c6b9c2e49b5bce5bf1cf3c77fea3c6cSwap And Send195597612022-08-06 18:04:2210 days 7 hrs ago0x38acdda3ff0d9d8256092ebbd5455aa6a8d7e568OUT 0xcb0a4177e0a60247c0ad18be87f8edff6dd302830 ETH0.‍000062800464 ETH
0x95947a26dba33eb3f2248d0f22f7278aa82ef977ca195fa5c5d263d5c159416aSwap And Send195593102022-08-06 17:59:4610 days 7 hrs ago0x38acdda3ff0d9d8256092ebbd5455aa6a8d7e568OUT 0xcb0a4177e0a60247c0ad18be87f8edff6dd302830 ETH0.‍000062929417 ETH
0x19eae8146b3131b5e3a9c1461fcd5f11fd694569ae9fa41cdd987b2fcf4e4229Approve195589292022-08-06 17:54:0810 days 7 hrs ago0x38acdda3ff0d9d8256092ebbd5455aa6a8d7e568OUT 0xfd086bc7cd5c481dcc9c85ebe478a1c0b69fcbb90 ETH0.‍000053234888 ETH
0x7e713770ce90f7720330d2eda86a1ba3b89ec7b68088eac941059291ba0fa7e0Withdraw192355032022-08-03 0:02:4514 days 1 hr ago0x38acdda3ff0d9d8256092ebbd5455aa6a8d7e568OUT 0x82af49447d8a07e3bd95bd0d56f35241523fbab10 ETH0.‍000065946317 ETH
0x009ba7aedbf92788056e3430ec39db879843c6c94a7d696ee62fb938b066fa03Multicall192354482022-08-03 0:02:1014 days 1 hr ago0x38acdda3ff0d9d8256092ebbd5455aa6a8d7e568OUT Uniswap V3: Router 20 ETH0.‍000123555428 ETH
0x67faee7561325d2761bf886712a6b98118e6ee2abd865d6fba1783642bf25004Approve192354112022-08-03 0:00:5914 days 1 hr ago0x38acdda3ff0d9d8256092ebbd5455aa6a8d7e568OUT 0xa0df47432d9d88bcc040e9ee66ddc7e17a8827150 ETH0.‍000084981171 ETH
0x15720ba7380b640dc3e22c6dcccea5bc06e0efb8accc1a82f7e8cc1b58efaf6cWithdraw All192350172022-08-02 23:54:2414 days 1 hr ago0x38acdda3ff0d9d8256092ebbd5455aa6a8d7e568OUT 0x0b7ea1b9fbc9860f4a508e9d0dde04f2552d2ade0 ETH0.‍000079484644 ETH
0xa6f47cc3becd997457b15ba10ccd076190d74b47b884cb431df110c9fcc3c292Deposit All189228302022-07-30 5:33:0217 days 19 hrs ago0x38acdda3ff0d9d8256092ebbd5455aa6a8d7e568OUT 0xc14844ac5c0e7e96f678c75308d3fde1fa36e22f0 ETH0.‍000069999924 ETH
0x1306645f0b7384492400c0274288494b19c45ef7dd042848ab74b4b371b7fb4aDeposit All189228022022-07-30 5:32:0717 days 19 hrs ago0x38acdda3ff0d9d8256092ebbd5455aa6a8d7e568OUT 0xc14844ac5c0e7e96f678c75308d3fde1fa36e22f0 ETH0.‍000069999924 ETH
0xb705fb06b2380dc9a4584bd8ec797aa1213e3504eb24e3c9e58a773bdf9429faDeposit All189227852022-07-30 5:30:3317 days 19 hrs ago0x38acdda3ff0d9d8256092ebbd5455aa6a8d7e568OUT 0xc14844ac5c0e7e96f678c75308d3fde1fa36e22f0 ETH0.‍000077921464 ETH
0x0b43e53a4fef152645b107fa8bf73389de271511d5d0039ddfc4d8aa380eeff2Approve189227702022-07-30 5:30:3317 days 19 hrs ago0x38acdda3ff0d9d8256092ebbd5455aa6a8d7e568OUT 0x24704aff49645d32655a76df6d407e02d146dafc0 ETH0.‍000066680863 ETH
0xe48aab07facf92b3ffeedb48e45413601d7da5fb0a1ed0c6a5e94cb750a88c4fAdd Liquidity ET...189227092022-07-30 5:29:5717 days 19 hrs ago0x38acdda3ff0d9d8256092ebbd5455aa6a8d7e568OUT SushiSwap: Router0.‍041094142970002 ETH0.‍00009007927 ETH
0xc14c552efd61cf1e5a6dc377bb7fafa2253c686b0c316024da55a0cea5cff424Swap Exact Token...189226422022-07-30 5:28:0517 days 19 hrs ago0x38acdda3ff0d9d8256092ebbd5455aa6a8d7e568OUT SushiSwap: Router0 ETH0.‍000099848089 ETH
[ Download CSV Export 
Latest 8 internal transactions
Parent Txn Hash Block From To Value
0x87bc5a39b18ce06e1344804b4c2e99a8203675533c7c419c98bff52b5c41c5a5200473502022-08-12 1:14:405 days 9 mins ago 0xa906f338cb21815cbc4bc87ace9e68c87ef8d8f10x38acdda3ff0d9d8256092ebbd5455aa6a8d7e5680.‍000310625457890856 ETH
0x7e713770ce90f7720330d2eda86a1ba3b89ec7b68088eac941059291ba0fa7e0192355032022-08-03 0:02:4514 days 1 hr ago 0x82af49447d8a07e3bd95bd0d56f35241523fbab10x38acdda3ff0d9d8256092ebbd5455aa6a8d7e5680.‍000450044373290726 ETH
0x009ba7aedbf92788056e3430ec39db879843c6c94a7d696ee62fb938b066fa03192354482022-08-03 0:02:1014 days 1 hr ago Uniswap V3: Router 20x38acdda3ff0d9d8256092ebbd5455aa6a8d7e5680.‍000000000003935571 ETH
0xc65301a17d0ff30909a165fac9f407bab0226e263b31e7af7549f2a53483f25a189196572022-07-30 4:19:3417 days 21 hrs ago Uniswap V3: Router 20x38acdda3ff0d9d8256092ebbd5455aa6a8d7e5680.‍088115290384558735 ETH
0x328f61fea6fa158c36a3b113414a1db560867b7031d3e160e992f3d9cc84b3c8186539662022-07-26 23:48:4321 days 1 hr ago 0x82af49447d8a07e3bd95bd0d56f35241523fbab10x38acdda3ff0d9d8256092ebbd5455aa6a8d7e5680.‍036026615799350946 ETH
0xbd50ead9c236838289e86f36462bb75ecf7af02cfb5cd739cb4cc1fad6bb9203184580642022-07-24 16:19:4023 days 9 hrs ago 0x66a71dcef29a0ffbdbe3c6a460a3b5bc225cd6750x38acdda3ff0d9d8256092ebbd5455aa6a8d7e5680.‍000295924035905766 ETH
0x1e5b64e46ed352c284f9d7a20a15f643f0ee98bbbd9c105efe8687b5d064530b184500892022-07-24 14:14:3423 days 11 hrs ago Celer Network: cBridge0x38acdda3ff0d9d8256092ebbd5455aa6a8d7e5680.‍14105941517700304 ETH
0xcf2779646a5df4bb6622f5655d58f8406cecac109dc9c3c3c87f370d9ee6d87b184475572022-07-24 13:36:4323 days 11 hrs ago Celer Network: cBridge0x38acdda3ff0d9d8256092ebbd5455aa6a8d7e5680.‍002024225005952239 ETH
[ Download CSV Export 
Loading

Contract Name:
0 ETH

Compiler Version
0

Optimization Enabled:
0 ETH

Other Settings:
-NA-
Block Transaction Gas Used Reward
Age Block Fee Address BC Fee Address Voting Power Jailed Incoming
Block Uncle Number Difficulty Gas Used Reward
Loading
Make sure to use the "Vote Down" button for any spammy posts, and the "Vote Up" for interesting conversations.